Regional Weather Roundup
Issued by NWS

Home | Current Version | Previous Version | Graphics & Text | Print | Product List | Glossary On
Versions: 1 2 3 4 5 6 7 8 9 10 11 12 13 14 15 16 17 18 19 20 21 22 23 24 25 26 27 28 29 30 31 32 33 34 35 36 37 38 39 40 41 42 43 44 45 46 47 48 49 50
000
ASUS45 KBOU 282007
RWRCO

WEATHER ROUNDUP FOR COLORADO
NATIONAL WEATHER SERVICE DENVER/BOULDER CO
200 PM MDT THU MAY 28 2015

NOTE: "FAIR" INDICATES FEW OR NO CLOUDS BELOW 12000 FEET WITH NO
SIGNIFICANT WEATHER AND/OR OBSTRUCTIONS TO VISIBILITY.

COZ001>005-013-030-031-282100-
...NORTHWEST COLORADO...

CITY           SKY/WX    TMP DP  RH WIND       PRES   REMARKS
CRAIG          LGT RAIN  59  42  53 NW10      30.13F
HAYDEN         PTSUNNY   63  36  36 N10       30.12F
MEEKER         MOSUNNY   65  39  38 W8        30.12F
MOUNT WERNER   NOT AVBL
STEAMBOAT SPGS PTSUNNY   61  38  42 NW5       30.13F
WALDEN         MOSUNNY   55  32  41 NW12      30.19F
$$

COZ006>008-011-282100-
...WEST CENTRAL VALLEYS...

CITY           SKY/WX    TMP DP  RH WIND       PRES   REMARKS
GRAND JUNCTION MOSUNNY   73  37  27 NW10G18   30.05F
MONTROSE       MOSUNNY   70  37  29 NW9       30.11F
EAGLE          MOSUNNY   64  37  36 S20       30.13F
RIFLE          MOSUNNY   69  43  38 SW6       30.08F
DELTA          MOSUNNY   76  38  25 W6        30.06F
NUCLA          MOSUNNY   72  30  21 W14G20    30.14F
$$

COZ017>023-064>068-282100-
...SOUTHWEST COLORADO...

CITY           SKY/WX    TMP DP  RH WIND       PRES   REMARKS
DURANGO        PTSUNNY   64  46  52 VRB3      30.14F THUNDER
CORTEZ         SUNNY     76  29  17 W13G21    30.11F
PAGOSA SPRINGS PTSUNNY   66  30  26 CALM      30.19F
TELLURIDE      MOSUNNY   59  27  29 W16G22    30.29F
WOLF CREEK PAS NOT AVBL
$$

COZ009-010-012-014-032>034-037-058>063-282100-
...CENTRAL COLORADO...

CITY           SKY/WX    TMP DP  RH WIND       PRES   REMARKS
ASPEN          PTSUNNY   57  35  43 NW9       30.20F
BUENA VISTA    PTSUNNY   61  27  27 NW21G28   30.15F
COPPER MTN     MOSUNNY   45  27  49 W16G26    30.38S
BERTHOUD PASS  PTSUNNY   32  25  74 W10G36    30.40R HAZE    WCI  24
COTTONWOOD PAS PTSUNNY   57  27  30 W14G24    30.27R
GUNNISON       MOSUNNY   64  28  25 W10G21    30.20S
KREMMLING      MOSUNNY   63  36  36 NW7       30.15F
LEADVILLE      PTSUNNY   53  29  39 NW15G22   30.25F
MONARCH PASS   PTSUNNY   39  27  60 W35G53    30.46S
SALIDA         PTSUNNY   67  32  27 SW12      30.21F
SUNLIGHT       PTSUNNY   48  36  61 CALM      30.36F
WILKERSON PASS MOSUNNY   52  27  37 W9G24     30.34F
$$

COZ069>075-282100-
...SAN LUIS VALLEY/SANGRE DE CRISTO MOUNTAINS...

CITY           SKY/WX    TMP DP  RH WIND       PRES   REMARKS
ALAMOSA        MOSUNNY   68  28  22 VRB6G18   30.12F
LA VETA PASS   MOSUNNY  N/A N/A N/A MISG      30.29S
SAGUACHE       TSTM      59  36  41 NW13G21   30.19S
$$

COZ035-036-038>040-282100-
...NORTHERN COLORADO FRONT RANGE...

CITY           SKY/WX    TMP DP  RH WIND       PRES   REMARKS
DENVER INTL AP PTSUNNY   68  42  38 CALM      30.01F
DMNS CITY PARK   N/A     69  39  32 N6        30.00F
AURORA         PTSUNNY   65  41  41 N8        30.03F
FRONT RANGE AP PTSUNNY   68  39  34 W10       30.03F
ERIE MUNI ARPT LGT RAIN  65  51  59 SE7       30.00S
BOULDER MUN AP PTSUNNY   72  41  33 S6        29.99F
CENTENNIAL     TSTM      63  44  50 N8        30.03S
BROOMFIELD     PTSUNNY   70  45  40 NE7       30.03F
FORT COLLINS   MOSUNNY   72  45  37 NE15      29.99F
LONGMONT       MOSUNNY   79  41  25 SW5       29.99F
$$

COZ041-046-047-076>085-087-088-282100-
...PIKES PEAK/PALMER DIVIDE AND SOUTHERN FOOTHILLS...

CITY           SKY/WX    TMP DP  RH WIND       PRES   REMARKS
COLO. SPRINGS  HAIL      67  39  35 W8G18     30.05S
A. F. ACADEMY  PTSUNNY   65  42  42 S8        30.05F
ELLICOTT       CLOUDY   N/A N/A N/A SW12G20   30.02F
FALCON         LGT RAIN  62  32  32 E54G101   30.10R
FORT CARSON    CLOUDY    75  37  25 W15G29    30.00S
LIMON          TSTM      61  50  67 N13       29.99F
MONUMENT HILL  LGT RAIN  61  43  51 N9        30.08F
TRINIDAD       CLOUDY    68  43  40 E7        30.04F
$$

COZ042>045-048>051-090-091-282100-
...NORTHEAST COLORADO...

CITY           SKY/WX    TMP DP  RH WIND       PRES   REMARKS
GREELEY ARPT   MOSUNNY   72  45  37 N15       29.99F
AKRON          MOSUNNY   72  51  47 E7        29.97F
BURLINGTON     MOSUNNY   75  57  53 SE14G20   29.93F
WRAY           PTSUNNY   78  58  51 E8G16     29.95F
STERLING       PTSUNNY   73  52  46 NE7       29.93F
HOLYOKE        PTSUNNY   75  55  50 NE8       29.96F
FORT MORGAN    SUNNY     75  47  36 SE3       29.97F
$$

COZ086-089-092>099-282100-
...SOUTHEAST COLORADO...

CITY           SKY/WX    TMP DP  RH WIND       PRES   REMARKS
PUEBLO         PTSUNNY   79  42  26 VRB5      29.94F
LA JUNTA       PTSUNNY   77  54  44 SE10      29.95F
LAMAR          PTSUNNY   79  58  48 MISG      29.92S
SPRINGFIELD      N/A     69  57  65 SW9       29.99R
$$



USA.gov is the U.S. government's official web portal to all federal, state and local government web resources and services.